When you browse on this site, cookies collect data to enhance your experience and personalize the content and advertising you see.
Visit our Privacy Policy to learn more. By continuing to use the site, you agree to this use of cookies and data.
  • In United Kingdom
  • List of Countries
  • For 7 days
  • Water Temperature
  • Satellite Maps
  • Weather Map
  • Weather Widgets
  • user-avatar
    Login

    Hourly Weather Hajdarabad

    Today, 21 February, Thursday

    Time Temperature Precipitation Wind Pressure Humidity
    00:00 +25°C° 0.3 mm 2 mps 757 mmHg 68%
    01:00 +24°C° 0.3 mm 2 mps 757 mmHg 70%
    02:00 +24°C° 0.3 mm 2 mps 757 mmHg 72%
    03:00 +22°C° 0 mm 3 mps 757 mmHg 69%
    04:00 +21°C° 0 mm 4 mps 757 mmHg 66%
    05:00 +21°C° 0 mm 3 mps 757 mmHg 67%
    06:00 +21°C° 0 mm 3 mps 758 mmHg 67%
    07:00 +21°C° 0 mm 3 mps 758 mmHg 68%
    08:00 +21°C° 0 mm 4 mps 759 mmHg 69%
    09:00 +22°C° 0 mm 3 mps 759 mmHg 64%
    10:00 +24°C° 0 mm 3 mps 759 mmHg 60%
    11:00 +26°C° 0 mm 3 mps 760 mmHg 55%
    12:00 +27°C° 0 mm 3 mps 759 mmHg 50%
    13:00 +28°C° 0 mm 3 mps 759 mmHg 45%
    14:00 +29°C° 0 mm 2 mps 758 mmHg 40%
    15:00 +29°C° 0 mm 2 mps 758 mmHg 38%
    16:00 +29°C° 0 mm 2 mps 758 mmHg 36%
    17:00 +29°C° 0 mm 2 mps 758 mmHg 35%
    18:00 +28°C° 0 mm 2 mps 758 mmHg 37%
    19:00 +27°C° 0 mm 3 mps 758 mmHg 39%
    20:00 +26°C° 0 mm 3 mps 758 mmHg 41%
    21:00 +26°C° 0 mm 3 mps 758 mmHg 42%
    22:00 +25°C° 0 mm 3 mps 758 mmHg 44%
    23:00 +24°C° 0 mm 2 mps 758 mmHg 45%

    Tomorrow, 22 February, Friday

    Time Temperature Precipitation Wind Pressure Humidity
    00:00 +24°C° 0 mm 2 mps 758 mmHg 47%
    01:00 +23°C° 0 mm 1 mps 758 mmHg 49%
    02:00 +22°C° 0 mm 1 mps 758 mmHg 50%
    03:00 +22°C° 0 mm 1 mps 758 mmHg 51%
    04:00 +22°C° 0 mm 1 mps 758 mmHg 51%
    05:00 +22°C° 0 mm 1 mps 758 mmHg 51%
    06:00 +21°C° 0 mm 2 mps 758 mmHg 49%
    07:00 +21°C° 0 mm 2 mps 759 mmHg 48%
    08:00 +21°C° 0 mm 3 mps 759 mmHg 47%
    09:00 +24°C° 0 mm 3 mps 760 mmHg 41%
    10:00 +25°C° 0 mm 3 mps 760 mmHg 36%
    11:00 +27°C° 0 mm 4 mps 760 mmHg 31%
    12:00 +28°C° 0 mm 3 mps 760 mmHg 29%
    13:00 +29°C° 0 mm 3 mps 759 mmHg 26%
    14:00 +29°C° 0 mm 3 mps 758 mmHg 24%
    15:00 +30°C° 0 mm 3 mps 758 mmHg 23%
    16:00 +30°C° 0 mm 3 mps 758 mmHg 22%
    17:00 +30°C° 0 mm 3 mps 758 mmHg 20%
    18:00 +29°C° 0 mm 4 mps 758 mmHg 21%
    19:00 +27°C° 0 mm 5 mps 758 mmHg 23%
    20:00 +26°C° 0 mm 5 mps 759 mmHg 24%
    21:00 +26°C° 0 mm 5 mps 759 mmHg 24%
    22:00 +25°C° 0 mm 5 mps 759 mmHg 24%
    23:00 +25°C° 0 mm 5 mps 759 mmHg 23%

    Day after tomorrow, 23 February, Saturday

    Time Temperature Precipitation Wind Pressure Humidity
    00:00 +23°C° 0 mm 5 mps 759 mmHg 24%
    01:00 +23°C° 0 mm 5 mps 759 mmHg 24%
    02:00 +22°C° 0 mm 5 mps 758 mmHg 25%
    03:00 +22°C° 0 mm 5 mps 758 mmHg 25%
    04:00 +21°C° 0 mm 6 mps 758 mmHg 26%
    05:00 +21°C° 0 mm 6 mps 758 mmHg 26%
    06:00 +21°C° 0 mm 6 mps 758 mmHg 29%
    07:00 +20°C° 0 mm 5 mps 758 mmHg 31%
    08:00 +20°C° 0 mm 5 mps 759 mmHg 33%
    09:00 +22°C° 0 mm 5 mps 759 mmHg 30%
    10:00 +25°C° 0 mm 5 mps 759 mmHg 27%
    11:00 +26°C° 0 mm 5 mps 759 mmHg 24%
    12:00 +27°C° 0 mm 4 mps 759 mmHg 22%
    13:00 +29°C° 0 mm 3 mps 758 mmHg 19%
    14:00 +30°C° 0 mm 3 mps 757 mmHg 17%
    15:00 +30°C° 0 mm 2 mps 757 mmHg 17%
    16:00 +30°C° 0 mm 2 mps 756 mmHg 17%
    17:00 +30°C° 0 mm 2 mps 756 mmHg 17%
    18:00 +29°C° 0 mm 2 mps 756 mmHg 18%
    19:00 +28°C° 0 mm 3 mps 756 mmHg 20%
    20:00 +27°C° 0 mm 3 mps 756 mmHg 22%
    21:00 +26°C° 0 mm 3 mps 757 mmHg 23%
    22:00 +25°C° 0 mm 2 mps 757 mmHg 24%
    23:00 +24°C° 0 mm 2 mps 757 mmHg 26%

    24 February, Sunday

    Time Temperature Precipitation Wind Pressure Humidity
    00:00 +24°C° 0 mm 1 mps 756 mmHg 26%
    01:00 +23°C° 0 mm 1 mps 756 mmHg 27%
    02:00 +20°C° 0 mm 0 mps 756 mmHg 28%
    03:00 +20°C° 0 mm 0 mps 755 mmHg 28%
    04:00 +22°C° 0 mm 1 mps 755 mmHg 29%
    05:00 +21°C° 0 mm 1 mps 755 mmHg 30%
    06:00 +22°C° 0 mm 1 mps 755 mmHg 30%
    07:00 +23°C° 0 mm 1 mps 755 mmHg 30%
    08:00 +23°C° 0 mm 1 mps 756 mmHg 30%
    09:00 +25°C° 0 mm 2 mps 756 mmHg 26%
    10:00 +27°C° 0 mm 2 mps 756 mmHg 22%
    11:00 +29°C° 0 mm 3 mps 757 mmHg 18%
    12:00 +32°C° 0 mm 4 mps 756 mmHg 17%
    13:00 +33°C° 0 mm 4 mps 755 mmHg 16%
    14:00 +34°C° 0 mm 5 mps 754 mmHg 15%
    15:00 +34°C° 0 mm 5 mps 753 mmHg 16%
    16:00 +34°C° 0 mm 5 mps 753 mmHg 16%
    17:00 +33°C° 0 mm 5 mps 753 mmHg 17%
    18:00 +32°C° 0 mm 6 mps 753 mmHg 20%
    19:00 +30°C° 0 mm 6 mps 754 mmHg 23%
    20:00 +28°C° 0 mm 6 mps 754 mmHg 26%
    21:00 +27°C° 0 mm 6 mps 754 mmHg 31%
    22:00 +26°C° 0 mm 6 mps 755 mmHg 36%
    23:00 +26°C° 0 mm 6 mps 755 mmHg 41%

    25 February, Monday

    Time Temperature Precipitation Wind Pressure Humidity
    00:00 +24°C° 0 mm 6 mps 754 mmHg 45%
    01:00 +24°C° 0 mm 6 mps 754 mmHg 50%
    02:00 +23°C° 0 mm 6 mps 754 mmHg 54%
    03:00 +23°C° 0 mm 6 mps 753 mmHg 57%
    04:00 +23°C° 0 mm 5 mps 753 mmHg 59%
    05:00 +23°C° 0 mm 5 mps 753 mmHg 62%
    06:00 +23°C° 0 mm 5 mps 753 mmHg 63%
    07:00 +23°C° 0 mm 4 mps 754 mmHg 64%
    08:00 +23°C° 0 mm 4 mps 754 mmHg 64%
    09:00 +26°C° 0 mm 4 mps 754 mmHg 54%
    10:00 +27°C° 0 mm 4 mps 755 mmHg 43%
    11:00 +29°C° 0 mm 4 mps 755 mmHg 33%
    12:00 +32°C° 0 mm 5 mps 754 mmHg 28%
    13:00 +33°C° 0 mm 6 mps 753 mmHg 23%
    14:00 +34°C° 0 mm 7 mps 752 mmHg 18%
    15:00 +34°C° 0 mm 8 mps 752 mmHg 18%
    16:00 +33°C° 0 mm 9 mps 751 mmHg 19%
    17:00 +33°C° 0 mm 11 mps 751 mmHg 20%
    18:00 +31°C° 0.3 mm 9 mps 751 mmHg 26%
    19:00 +28°C° 0.3 mm 8 mps 752 mmHg 32%
    20:00 +27°C° 0.3 mm 7 mps 753 mmHg 39%
    21:00 +24°C° 1.4 mm 6 mps 753 mmHg 43%
    22:00 +22°C° 1.4 mm 6 mps 753 mmHg 47%
    23:00 +21°C° 1.4 mm 5 mps 753 mmHg 52%

    26 February, Tuesday

    Time Temperature Precipitation Wind Pressure Humidity
    00:00 +21°C° 0.2 mm 5 mps 753 mmHg 51%
    01:00 +20°C° 0.2 mm 4 mps 753 mmHg 51%
    02:00 +20°C° 0.2 mm 3 mps 752 mmHg 50%
    03:00 +20°C° 0 mm 4 mps 752 mmHg 51%
    04:00 +19°C° 0 mm 4 mps 752 mmHg 52%
    05:00 +19°C° 0 mm 5 mps 752 mmHg 52%
    06:00 +19°C° 0 mm 5 mps 753 mmHg 53%
    07:00 +19°C° 0 mm 5 mps 753 mmHg 54%
    08:00 +19°C° 0 mm 6 mps 754 mmHg 55%
    09:00 +20°C° 0 mm 6 mps 754 mmHg 50%
    10:00 +22°C° 0 mm 6 mps 755 mmHg 45%
    11:00 +23°C° 0 mm 6 mps 755 mmHg 40%
    12:00 +24°C° 0 mm 6 mps 754 mmHg 36%
    13:00 +26°C° 0 mm 6 mps 753 mmHg 32%
    14:00 +27°C° 0 mm 6 mps 753 mmHg 28%
    15:00 +26°C° 0 mm 6 mps 752 mmHg 27%
    16:00 +26°C° 0 mm 5 mps 752 mmHg 26%
    17:00 +26°C° 0 mm 5 mps 752 mmHg 25%
    18:00 +25°C° 0 mm 4 mps 752 mmHg 26%
    19:00 +24°C° 0 mm 3 mps 753 mmHg 27%
    20:00 +24°C° 0 mm 2 mps 753 mmHg 29%
    21:00 +23°C° 0 mm 2 mps 753 mmHg 31%
    22:00 +21°C° 0 mm 2 mps 753 mmHg 33%
    23:00 +21°C° 0 mm 1 mps 754 mmHg 36%
    Show more